This demonstration page uses our WeatherBlox Daily Observations layout. Learn more.

Left ArrowRight Arrow

39.01783, -85.05884

Hourly Observations for April 3, 2018

Temp ( °F °C ) Dew Point ( °F °C ) Humidity (%) Winds ( mph kmh ) Pressure ( in mb ) Visibility ( mi km ) Precip ( " mm )
12:16 am 00:16 Cloudy with Light Rain 44 6.7 42 5.6 93 93 SSE 12 19 29.91 1013 7 11 0.02 0.51
12:36 am 00:36 Cloudy with Light Rain 44 6.7 42 5.6 93 93 SSE 12 19 29.91 1013 6 10 0.03 0.76
12:52 am 00:52 Cloudy with Rain 44 6.7 43 6.1 96 96 SSE 13 20 29.87 1011 4 6 0.07 1.78
1:00 am 01:00 Cloudy with Nearby Thunderstorms 44 6.7 43 6.1 96 96 N N/A 29.88 1012 3 5 0.04 1.02
1:16 am 01:16 Cloudy with Nearby Thunderstorms 45 7.2 43 6.1 93 93 NW 10 17 29.94 1014 4 6 0.08 2.03
1:26 am 01:26 Cloudy with Nearby Thunderstorms 44 6.7 43 6.1 96 96 E 6 9 29.91 1013 3 4 0.15 3.81
1:30 am 01:30 Cloudy with Heavy Thunderstorms 44 6.7 43 6.1 96 96 SSE 9 15 29.91 1013 3 4 0.18 4.57
1:41 am 01:41 Cloudy with Thunderstorms 44 6.7 43 6.1 96 96 SSE 6 9 29.91 1013 3 5 0.21 5.33
1:52 am 01:52 Cloudy with Thunderstorms 44 6.7 44 6.7 100 100 ESE 9 15 29.88 1012 3 5 0.26 6.60
2:00 am 02:00 Cloudy with Nearby Thunderstorms 45 7.2 44 6.7 97 97 SE 10 17 29.88 1012 5 8 0.02 0.51
2:13 am 02:13 Cloudy with Rain 45 7.2 44 6.7 97 97 SE 10 17 29.88 1012 5 8 0.04 1.02
2:25 am 02:25 Cloudy with Nearby Thunderstorms 45 7.2 44 6.7 97 97 SSE 9 15 29.88 1012 5 8 0.06 1.52
2:31 am 02:31 Cloudy with Thunderstorms 45 7.2 44 6.7 97 97 SSE 14 22 29.88 1012 4 6 0.08 2.03
2:52 am 02:52 Cloudy with Thunderstorms 46 7.8 45 7.2 96 96 S 13 20 29.84 1010 4 6 0.13 3.30
3:02 am 03:02 Cloudy with Nearby Thunderstorms 47 8.3 46 7.8 97 97 S 13 20 29.83 1010 4 6 0.02 0.51
3:23 am 03:23 Cloudy 48 8.9 47 8.3 96 96 S 5 7 29.83 1010 9 14 0.05 1.27
3:52 am 03:52 Cloudy 48 8.9 47 8.3 96 96 ESE 6 9 29.81 1010 9 14 0.05 1.27
4:17 am 04:17 Cloudy 48 8.9 48 8.9 100 100 SSE 8 13 29.80 1009 7 11 N/A
4:52 am 04:52 Cloudy 48 8.9 47 8.3 96 96 SSE 15 24 29.75 1008 9 14 N/A
5:52 am 05:52 Cloudy with Light Rain 48 8.9 46 7.8 93 93 S 7 11 29.79 1009 10 16 N/A
6:08 am 06:08 Cloudy 48 8.9 47 8.3 96 96 VRB 3 6 29.80 1009 10 16 N/A
6:52 am 06:52 Cloudy with Light Rain 48 8.9 47 8.3 96 96 ESE 8 13 29.78 1008 8 13 N/A
7:00 am 07:00 Cloudy with Nearby Thunderstorms 48 8.9 47 8.3 96 96 E 7 11 29.77 1008 8 13 N/A
7:14 am 07:14 Cloudy 48 8.9 47 8.3 96 96 NNW 21 33 29.83 1010 8 13 N/A
7:25 am 07:25 Cloudy with Light Rain 48 8.9 47 8.3 96 96 N 12 19 29.83 1010 5 8 0.01 0.25
7:26 am 07:26 Cloudy with Light Rain 48 8.9 47 8.3 96 96 N 13 20 29.83 1010 6 10 0.01 0.25
7:28 am 07:28 Cloudy with Light Rain 48 8.9 47 8.3 96 96 N 12 19 29.83 1010 1 2 0.01 0.25
7:52 am 07:52 Cloudy with Light Rain 49 9.4 48 8.9 97 97 NE 13 20 29.80 1009 4 6 0.01 0.25
8:27 am 08:27 Cloudy 49 9.4 48 8.9 97 97 ESE 7 11 29.80 1009 7 11 N/A
8:39 am 08:39 Cloudy with Thunderstorms 50 10 48 8.9 93 93 ENE 7 11 29.80 1009 8 13 N/A
8:52 am 08:52 Cloudy with Light Thunderstorms 50 10 48 8.9 93 93 E 9 15 29.78 1009 5 8 N/A
9:35 am 09:35 Cloudy with Nearby Thunderstorms 51 10.6 50 10 96 96 E 7 11 29.77 1008 7 11 0.09 2.29
9:52 am 09:52 Cloudy with Mist and Fog 52 11.1 51 10.6 97 97 VRB 6 9 29.75 1008 6 10 0.09 2.29
10:52 am 10:52 Partly Cloudy 58 14.4 55 12.8 90 90 SE 13 20 29.73 1007 10 16 N/A
11:52 am 11:52 Mostly Cloudy 63 17.2 58 14.4 84 84 SSE 9 15 29.72 1006 10 16 N/A
12:52 pm 12:52 Partly Cloudy 72 22.2 61 16.1 68 68 S 18 30 29.66 1005 10 16 N/A
1:52 pm 13:52 Partly Cloudy 74 23.3 60 15.6 62 62 SSW 20 31 29.63 1003 10 16 N/A
2:52 pm 14:52 Mostly Cloudy 76 24.4 58 14.4 54 54 SSW 17 28 29.60 1003 10 16 N/A
3:52 pm 15:52 Mostly Cloudy 74 23.3 58 14.4 57 57 SSW 18 30 29.57 1001 10 16 N/A
4:45 pm 16:45 Cloudy with Thunderstorms 73 22.8 58 14.4 59 59 SW 12 19 29.59 1002 10 16 N/A
4:52 pm 16:52 Cloudy with Light Thunderstorms 73 22.8 58 14.4 59 59 SW 12 19 29.59 1002 10 16 N/A
5:17 pm 17:17 Cloudy with Light Thunderstorms 70 21.1 59 15 68 68 S 12 19 29.59 1002 2 3 N/A
5:33 pm 17:33 Cloudy with Heavy Thunderstorms 66 18.9 60 15.6 81 81 SSW 12 19 29.56 1001 2 2 0.16 4.06
5:40 pm 17:40 Cloudy with Light Thunderstorms 65 18.3 61 16.1 87 87 W 15 24 29.59 1002 4 6 0.20 5.08
5:52 pm 17:52 Cloudy with Light Thunderstorms 64 17.8 61 16.1 90 90 SW 7 11 29.59 1002 5 8 0.29 7.37
6:13 pm 18:13 Cloudy with Light Rain 63 17.2 62 16.7 97 97 S 8 13 29.56 1001 10 16 N/A
6:52 pm 18:52 Cloudy 62 16.7 60 15.6 93 93 S 15 24 29.58 1002 10 16 N/A
7:36 pm 19:36 Cloudy with Light Thunderstorms 63 17.2 59 15 87 87 S 15 24 29.53 1000 10 16 N/A
7:52 pm 19:52 Cloudy with Light Thunderstorms 63 17.2 60 15.6 90 90 SSW 12 19 29.56 1001 7 11 N/A
7:56 pm 19:56 Cloudy with Heavy Thunderstorms 62 16.7 60 15.6 93 93 SSW 10 17 29.53 1000 3 4 0.06 1.52
8:03 pm 20:03 Cloudy with Light Thunderstorms 62 16.7 60 15.6 93 93 SW 8 13 29.53 1000 5 8 0.08 2.03
8:16 pm 20:16 Cloudy 63 17.2 60 15.6 90 90 SSW 8 13 29.53 1000 10 16 0.08 2.03
8:52 pm 20:52 Cloudy 63 17.2 60 15.6 90 90 S 13 20 29.53 1000 10 16 0.09 2.29
9:33 pm 21:33 Cloudy with Light Thunderstorms 64 17.8 60 15.6 87 87 SSW 16 26 29.53 1000 10 16 N/A
9:52 pm 21:52 Cloudy 64 17.8 60 15.6 87 87 SSW 16 26 29.53 1000 10 16 N/A
10:30 pm 22:30 Cloudy 64 17.8 60 15.6 87 87 SSW 16 26 29.53 1000 10 16 N/A
10:52 pm 22:52 Cloudy with Light Rain 64 17.8 60 15.6 87 87 SSW 14 22 29.54 1000 10 16 N/A
11:42 pm 23:42 Cloudy 63 17.2 60 15.6 90 90 SW 13 20 29.53 1000 10 16 N/A
11:52 pm 23:52 Cloudy with Light Rain 63 17.2 60 15.6 90 90 W 22 35 29.54 1000 10 16 N/A

Powered by AerisWeather